Location: Nelson
(41.2830°S, 173.2830°E)
Time: 12:46:05
(UTC+13:00)

Radarsat Rocket - Pass Details

Date: 04 October 2021
Orbit: 933 x 1492 km, 100.6° (Epoch: 27 October)

Event Time Altitude Azimuth Distance (km) Brightness Sun altitude
Rises 05:22:24 0° 58° (ENE) 4,620 8.0 -17.9°
Reaches altitude 10° 05:25:44 10° 68° (ENE) 3,638 7.6 -17.3°
Maximum altitude 05:32:39 28° 122° (ESE) 2,446 6.9 -16.1°
Drops below altitude 10° 05:39:17 10° 176° (S) 3,476 7.2 -14.9°
Sets 05:42:22 0° 187° (S) 4,383 7.6 -14.4°
